Overview Statistics Trail Chart Weather Telemetry Raw packets
 

This is the latest recevied weather packets stored in our database for station/object W8RSN-13. If no packets are shown the sender has not sent any weather packets the latest 10 day(s).

<< 37 38 39 40 41 42 43 >>
Time Temp. Humidity Pressure Rain* Wind** Luminosity Snow
1788427765 16.11° C 70% 1017 hPa - - - -
1788427464 16.67° C 67% 1017 hPa - - - -
1788427163 16.67° C 67% 1017 hPa - - - -
1788426862 16.67° C 66% 1017.2 hPa - - - -
1788426561 16.67° C 63% 1017.4 hPa - - - -
1788426260 16.67° C 65% 1017.1 hPa - - - -
1788425960 17.22° C 63% 1017.2 hPa - - - -
1788425659 17.22° C 64% 1017 hPa - - - -
1788425358 16.67° C 67% 1017.3 hPa - - - -
1788425057 16.67° C 68% 1017.3 hPa - - - -
1788424756 16.67° C 67% 1017.4 hPa - - - -
1788424475 17.22° C 64% 1017.5 hPa - - - -
1788424174 17.22° C 66% 1017.3 hPa - - - -
1788423873 17.22° C 66% 1017.3 hPa - - - -
1788423573 17.22° C 67% 1017.4 hPa - - - -
1788423272 17.22° C 69% 1017.6 hPa - - - -
1788422971 17.22° C 69% 1017.4 hPa - - - -
1788422670 17.22° C 68% 1017.4 hPa - - - -
1788422369 17.22° C 68% 1017.5 hPa - - - -
1788422068 17.22° C 69% 1017.5 hPa - - - -
1788421767 17.22° C 69% 1017.4 hPa - - - -
1788421466 17.78° C 69% 1017.5 hPa - - - -
1788421165 17.78° C 67% 1017.5 hPa - - - -
1788420865 17.78° C 68% 1017.5 hPa - - - -
1788420564 18.33° C 67% 1017.3 hPa - - - -

* Rain since midnight (hover to see other rain measurements)
** Current wind speed in m/s (hover to see current wind gust speed)